THOR ABLESTAR DEB, 243

Orbit data source: Space-Track

THOR ABLESTAR DEB, 243 is space debris in LEO originally from a launch on Thu, 29 Jun 1961 UTC launched from the Air Force Eastern Test Range (AFETR). Debris objects in space refer to the collection of defunct objects orbiting the Earth. Examples of debris include non-operational satellites, rocket bodies, and fragments generated from explosions, collisions, or faulty payload assembly.

Loading next visibility...
Identifier
243, 1961-015BY
Orbit
LEO
Country
Flag of USUS
Related business
Manufacturer
Unknown
Mission
Spacecraft
Bus & Motor
Unknown
Mass
Unknown
Launch date (UTC)
1961-06-29 (65 years ago)
Launch vehicle
Unknown
Launch site
Air Force Eastern Test Range (AFETR)
Object type
Payload
Rocket body
Debris
Shape & HBR
Unknown shape, 0.1 m
Radar Cross Section
Small (<0.1 m²)

Expand to show TLE details & history
Last TLE update: 20 hours ago

TLE from 20 hours ago
0 THOR ABLESTAR DEB
1   243U 61015BY  26061.94031155  .00001003  00000-0  71143-3 0  9998
2   243  66.4613 271.6905 0024009 171.7774 188.3706 14.01758511268402
Epoch: 2026-03-02T22:34Z
TLE epoch observation values (Epoch: 2026-03-02T22:34:02.917Z)
Latitude
-0.00005°
Longitude
132.45181°
Altitude
907.034 km
Speed
7.39 km/s
True Right ascension
18h 06m 45s
True Declination
0° 00' 00"
Sunlit
Object was in daylight at epoch
Visualization orbit readout
Latitude
Unknown
Longitude
Unknown
Altitude
Unknown
Speed
Unknown
Apparent Right ascension
Unknown
Apparent Declination
Unknown
Sunlit
N/A
Visualization observer readout
Local Sidereal Time
22:43:09
Azimuth
Unknown
Elevation
Unknown
Doppler factor
Unknown
Orbital elements
Apogee altitude
903.577 km
Perigee altitude
868.695 km
Semi-major axis
7,264.273 km
Eccentricity
0.0024
Inclination
66.4613°
RAAN
271.6905°
Arg. of periapsis
171.7774°
True anomaly
188.33067°
Mean anomaly
188.3706°
Eccentric anomaly
188.35062°
Mean motion
3.50554 °/min
Orbital period
102.69 mins
BSTAR
0.00071143
Loading maneuver chart data...
Computing Atmospheric mass density...

Documentation

Showing up to 5 results
|